CW8046 Weather Reports


time (UTC)temp
F
wind
direction
speed
knots
gust
knots
rain 1hr
in
rain 24hr
in
rain mn
in
humidity
%
barometer
mb
20260906092908 71 57 0.0 0.0 0.00 0.95 0.01 86 1011.5
20260906092408 71 57 0.0 0.0 0.00 0.95 0.01 86 1011.6
20260906091908 71 57 0.0 0.0 0.00 0.95 0.01 86 1011.5
20260906091406 71 57 0.0 0.0 0.00 0.95 0.01 86 1011.5
20260906090908 71 57 0.0 0.0 0.00 0.95 0.01 86 1011.4
20260906090404 71 57 0.0 0.0 0.00 0.95 0.01 86 1011.4
20260906085902 71 57 0.0 0.0 0.00 0.95 0.01 86 1011.3
20260906085404 71 57 0.0 0.0 0.00 0.95 0.01 86 1011.2
20260906084903 71 57 0.0 0.0 0.00 0.95 0.01 86 1011.1
20260906084404 71 57 0.0 0.0 0.00 0.95 0.01 86 1011.1
20260906083903 71 57 0.0 0.0 0.00 0.95 0.01 86 1011.1
20260906083405 71 57 0.0 1.7 0.00 0.95 0.01 86 1011.2
20260906082904 71 57 0.9 1.7 0.00 0.95 0.01 86 1011.2
20260906082621 71 279 0.0 1.7 0.00 0.95 0.01 86 1011.1
20260906082338 72 279 0.0 0.0 0.00 0.95 0.01 86 1011.0
20260906081400 72 279 0.0 0.0 0.00 0.95 0.01 86 1011.1
20260906080900 72 279 0.0 0.0 0.00 0.95 0.01 86 1011.1
20260906080358 72 279 0.0 0.0 0.00 0.95 0.01 86 1011.0
20260906080341 72 279 0.0 0.0 0.00 0.95 0.01 86 1010.9
20260906075358 72 279 0.0 0.9 0.00 0.95 0.01 86 1010.8
20260906074900 72 279 0.0 0.9 0.00 0.95 0.01 86 1010.8
20260906074359 72 279 0.0 0.0 0.00 0.95 0.01 86 1010.8
20260906074129 72 279 0.0 0.9 0.00 0.95 0.01 86 1010.9
20260906073848 72 279 0.0 0.9 0.00 0.95 0.01 86 1011.1
20260906072856 72 279 0.0 0.9 0.00 0.95 0.01 86 1011.1
20260906072355 72 279 0.0 0.0 0.00 0.95 0.01 86 1011.2
20260906071856 72 279 0.0 1.7 0.00 0.95 0.01 86 1011.2
20260906071356 72 279 0.0 1.7 0.00 0.95 0.01 86 1011.1
20260906070854 72 279 0.0 0.9 0.00 0.95 0.01 86 1011.2
20260906070355 72 279 0.0 0.0 0.00 0.95 0.01 86 1011.2
20260906065855 72 279 0.0 0.0 0.00 0.95 0.01 86 1011.2
20260906065356 72 279 0.0 0.0 0.00 0.95 0.01 86 1011.2
20260906064852 72 279 0.0 0.9 0.00 0.95 0.01 86 1011.3
20260906064350 72 279 0.0 0.9 0.00 0.95 0.01 86 1011.2
20260906063851 72 279 0.0 0.9 0.00 0.95 0.01 86 1011.3
20260906063611 72 279 0.0 0.9 0.00 0.95 0.01 86 1011.4
20260906062852 72 279 0.0 1.7 0.00 0.95 0.01 86 1011.5
20260906062352 72 298 0.0 1.7 0.00 0.95 0.01 86 1011.5
20260906061852 72 70 0.0 0.0 0.00 0.95 0.01 86 1011.5
20260906061349 72 70 0.0 0.0 0.01 0.95 0.01 86 1011.5
20260906060850 72 70 0.0 0.0 0.01 0.95 0.01 86 1011.6
20260906060347 72 70 0.0 0.0 0.01 0.95 0.01 86 1011.6
20260906055845 72 70 0.0 0.0 0.01 0.95 0.01 86 1011.7
20260906055609 72 70 0.0 0.0 0.01 0.95 0.01 86 1011.7
20260906054846 72 70 0.0 0.0 0.01 0.95 0.01 86 1011.8
20260906054344 72 70 0.0 0.0 0.01 0.95 0.01 86 1011.8
20260906053843 72 70 0.0 0.9 0.01 0.95 0.01 86 1011.9
20260906053342 72 70 0.0 0.9 0.01 0.95 0.01 86 1011.9
20260906052841 72 70 0.0 0.0 0.01 0.95 0.01 86 1011.9
20260906052340 72 70 0.0 1.7 0.01 0.95 0.01 86 1011.9
20260906051838 72 70 0.0 1.7 0.01 0.95 0.01 86 1011.8
20260906051335 73 70 0.0 0.9 0.00 0.94 0.00 86 1011.8
20260906050836 73 70 0.0 0.0 0.00 0.94 0.00 86 1011.8
20260906050331 73 70 0.0 0.0 0.00 0.94 0.00 86 1011.8
20260906045824 73 70 0.0 0.0 0.00 0.94 0.00 86 1011.9
20260906045318 73 70 0.0 0.9 0.00 0.94 0.00 86 1012.1
20260906044812 73 70 0.0 1.7 0.00 0.94 0.00 86 1012.0
20260906044307 73 70 0.0 1.7 0.00 0.94 0.00 86 1012.0
20260906043800 73 70 0.0 1.7 0.00 0.94 0.00 86 1012.0
20260906043254 73 70 0.0 1.7 0.00 0.94 0.00 86 1012.0
20260906042748 73 70 0.0 0.0 0.00 0.94 0.00 86 1012.1
20260906042505 73 70 0.0 0.0 0.00 0.94 0.00 86 1012.2
20260906042212 73 70 0.0 0.0 0.00 0.94 0.00 86 1012.2
20260906041230 73 70 0.0 0.0 0.00 0.94 0.00 86 1012.2
20260906040726 73 70 0.0 0.0 0.00 0.94 0.00 86 1012.2
20260906040227 73 70 0.0 0.0 0.00 0.94 0.00 86 1012.2
20260906035726 73 70 0.0 0.0 0.00 0.94 0.94 86 1012.3
20260906035226 73 70 0.0 0.0 0.00 0.94 0.94 86 1012.3
20260906034724 73 70 0.0 0.0 0.00 0.94 0.94 86 1012.2
20260906034223 73 70 0.0 0.0 0.00 0.94 0.94 86 1012.2
20260906033720 73 70 0.0 0.0 0.00 0.94 0.94 86 1012.2
20260906033218 73 70 0.0 0.0 0.00 0.94 0.94 86 1012.3
20260906032936 73 70 0.0 0.0 0.00 0.94 0.94 86 1012.4
20260906032217 73 70 0.0 0.0 0.00 0.94 0.94 86 1012.4
20260906031942 73 70 0.0 0.0 0.00 0.94 0.94 86 1012.4
20260906031213 73 70 0.0 0.0 0.00 0.94 0.94 86 1012.6
20260906030714 73 70 0.0 0.0 0.00 0.94 0.94 86 1012.6
20260906030212 73 70 0.0 0.0 0.00 0.94 0.94 86 1012.6
20260906025709 73 70 0.0 0.0 0.00 0.94 0.94 86 1012.8
20260906025207 73 70 0.0 0.9 0.00 0.94 0.94 86 1012.8
20260906024706 73 70 0.0 1.7 0.00 0.94 0.94 86 1012.9
20260906024205 73 70 0.9 2.6 0.00 0.94 0.94 86 1013.1
20260906023706 73 70 0.0 2.6 0.00 0.94 0.94 86 1013.1
20260906023205 73 70 0.0 0.0 0.00 0.94 0.94 86 1013.0
20260906022658 73 70 0.0 0.9 0.00 0.94 0.94 86 1012.9
20260906022151 73 70 0.9 2.6 0.00 0.94 0.94 86 1012.9
20260906021646 73 70 0.9 2.6 0.00 0.94 0.94 86 1013.1
20260906021139 73 104 0.0 1.7 0.00 0.94 0.94 85 1013.2
20260906020635 73 104 0.9 2.6 0.00 0.94 0.94 85 1013.2
20260906020134 73 104 0.9 2.6 0.00 0.94 0.94 85 1013.1
20260906015636 73 238 0.9 1.7 0.00 0.94 0.94 85 1012.9
20260906015134 73 238 0.0 1.7 0.00 0.94 0.94 85 1012.8
20260906014635 73 238 0.0 1.7 0.00 0.94 0.94 85 1012.8
20260906014135 73 238 0.0 0.0 0.00 0.94 0.94 85 1012.7
20260906013854 74 238 0.0 0.0 0.00 0.94 0.94 85 1012.5
20260906013622 74 238 0.0 0.0 0.00 0.94 0.94 85 1012.3
20260906012635 74 238 0.0 2.6 0.00 0.94 0.94 85 1012.2
20260906012134 74 238 0.9 2.6 0.00 0.94 0.94 85 1011.9
20260906011857 74 238 0.9 2.6 0.00 0.94 0.94 85 1011.8
20260906011135 74 234 0.0 2.6 0.00 0.94 0.94 85 1011.4
20260906010859 74 238 0.0 0.0 0.00 0.94 0.94 85 1011.4
20260906010135 74 238 0.0 0.0 0.00 0.94 0.94 85 1011.3
20260906005634 74 238 0.0 0.9 0.00 0.94 0.94 85 1011.2
20260906005135 74 184 0.0 1.7 0.00 0.94 0.94 85 1011.2
20260906004634 74 184 0.0 1.7 0.00 0.94 0.94 85 1011.2
20260906004132 74 70 0.0 2.6 0.00 0.94 0.94 85 1011.2
20260906003628 74 70 0.0 2.6 0.00 0.94 0.94 85 1011.2
20260906003128 74 45 0.0 0.9 0.00 0.94 0.94 85 1011.2
20260906002630 74 45 0.9 1.7 0.00 0.94 0.94 85 1011.3
20260906002126 74 45 0.9 1.7 0.00 0.94 0.94 85 1011.4
20260906001627 74 45 0.9 1.7 0.00 0.94 0.94 85 1011.4
20260906001126 74 45 0.0 1.7 0.00 0.94 0.94 85 1011.4
20260906000626 74 45 0.0 0.9 0.00 0.94 0.94 85 1011.4
20260906000127 74 45 0.0 0.9 0.00 0.94 0.94 85 1011.5
20260905235620 74 45 0.0 0.9 0.00 0.94 0.94 84 1011.5
20260905235120 74 45 0.9 2.6 0.00 0.94 0.94 84 1011.6
20260905234620 75 45 0.9 2.6 0.00 0.94 0.94 84 1011.7
20260905234117 75 5 0.9 3.5 0.00 0.94 0.94 84 1011.8
20260905233618 75 120 0.9 3.5 0.00 0.94 0.94 84 1011.9
20260905233117 75 107 0.9 2.6 0.00 0.94 0.94 84 1011.9
20260905232615 75 183 1.7 4.3 0.00 0.94 0.94 84 1011.7
20260905232112 75 67 1.7 6.1 0.00 0.94 0.94 84 1011.6
20260905232054 75 61 0.9 6.1 0.18 0.94 0.94 84 1011.6
20260905231114 75 115 0.9 1.7 0.59 0.94 0.94 84 1011.2
20260905230612 75 154 0.9 2.6 0.91 0.94 0.94 83 1010.8
20260905230112 75 79 0.0 2.6 0.94 0.94 0.94 83 1011.0
20260905225612 75 288 0.0 2.6 0.94 0.94 0.94 82 1011.0
20260905225108 75 288 1.7 4.3 0.94 0.94 0.94 82 1010.7
20260905224607 75 211 1.7 4.3 0.94 0.94 0.94 82 1010.9
20260905224106 75 210 0.9 3.5 0.94 0.94 0.94 81 1011.0
20260905223606 75 36 0.9 2.6 0.94 0.94 0.94 81 1011.0
20260905223104 75 107 2.6 7.8 0.94 0.94 0.94 80 1011.2
20260905222828 75 90 4.3 11.3 0.94 0.94 0.94 78 1012.0
20260905222103 76 48 6.1 14.8 0.94 0.94 0.94 75 1012.9
20260905221556 78 24 6.1 16.5 0.76 0.76 0.77 72 1013.1
20260905221051 83 69 5.2 16.5 0.27 0.27 0.32 67 1013.4
20260905220808 87 51 6.1 13.9 0.03 0.03 0.04 59 1012.5
20260905220038 91 83 7.0 26.9 0.00 0.00 0.00 47 1011.7
20260905215539 95 151 5.2 26.9 0.00 0.00 0.00 42 1011.3
20260905215039 99 211 1.7 4.3 0.00 0.00 0.00 41 1011.2
20260905214540 98 295 1.7 6.1 0.00 0.00 0.00 41 1010.2
20260905214038 98 198 2.6 7.0 0.00 0.00 0.00 41 1010.1
20260905213534 99 259 2.6 7.0 0.00 0.00 0.00 40 1010.1
20260905213035 99 306 2.6 6.1 0.00 0.00 0.00 40 1010.1
20260905212536 99 248 2.6 7.0 0.00 0.00 0.00 40 1009.7
20260905212036 100 225 2.6 7.0 0.00 0.00 0.00 40 1009.7
20260905211753 100 135 2.6 7.0 0.00 0.00 0.00 40 1010.1
20260905211034 100 240 2.6 7.0 0.00 0.00 0.00 40 1010.0
20260905210536 100 269 3.5 7.0 0.00 0.00 0.00 40 1010.1
20260905210252 100 265 2.6 7.0 0.00 0.00 0.00 40 1010.1
20260905205530 100 279 1.7 6.1 0.00 0.00 0.00 40 1010.2
20260905205030 100 296 2.6 7.0 0.00 0.00 0.00 41 1010.2
20260905204753 99 283 2.6 7.0 0.00 0.00 0.00 42 1010.1
20260905204031 98 250 1.7 7.0 0.00 0.00 0.00 42 1010.2
20260905204012 98 279 1.7 6.1 0.00 0.00 0.00 44 1010.0
20260905203252 98 81 0.9 6.1 0.00 0.00 0.00 44 1010.1
20260905202530 97 88 0.0 1.7 0.00 0.00 0.00 44 1010.0
20260905202032 97 259 0.9 4.3 0.00 0.00 0.00 44 1010.1
20260905201527 97 259 1.7 4.3 0.00 0.00 0.00 43 1010.2
20260905201028 97 237 1.7 4.3 0.00 0.00 0.00 43 1010.3
20260905201012 98 268 1.7 3.5 0.00 0.00 0.00 43 1010.3
20260905200029 98 237 1.7 7.0 0.00 0.00 0.00 41 1010.4
20260905195526 98 284 1.7 7.0 0.00 0.00 0.00 41 1010.4
20260905195517 99 217 1.7 5.2 0.00 0.00 0.00 40 1010.4
20260905194526 99 281 1.7 5.2 0.00 0.00 0.00 39 1010.4
20260905194026 100 34 1.7 7.0 0.00 0.00 0.00 38 1010.5
20260905193528 100 355 1.7 7.0 0.00 0.00 0.00 39 1010.6
20260905193244 100 55 1.7 6.1 0.00 0.00 0.00 39 1010.6
20260905192524 100 37 1.7 5.2 0.00 0.00 0.00 40 1010.7
20260905192023 100 261 1.7 6.1 0.00 0.00 0.00 38 1010.8
20260905191523 100 282 1.7 6.1 0.00 0.00 0.00 39 1010.8
20260905191022 99 171 1.7 4.3 0.00 0.00 0.00 40 1010.8
20260905190744 99 277 1.7 4.3 0.00 0.00 0.00 39 1011.0
20260905190022 98 15 1.7 6.1 0.00 0.00 0.00 40 1011.0
20260905185522 98 172 2.6 6.1 0.00 0.00 0.00 41 1011.1
20260905185024 98 32 2.6 7.8 0.00 0.00 0.00 42 1011.3
20260905184520 98 84 3.5 7.8 0.00 0.00 0.00 41 1011.3
20260905184019 98 55 2.6 7.8 0.00 0.00 0.00 41 1011.4
20260905183520 98 131 1.7 5.2 0.00 0.00 0.00 42 1011.5
20260905183019 97 336 1.7 4.3 0.00 0.00 0.00 42 1011.5
20260905182742 97 340 1.7 4.3 0.00 0.00 0.00 42 1011.7
20260905182020 98 58 1.7 3.5 0.00 0.00 0.00 41 1011.8
20260905181519 98 341 1.7 6.1 0.00 0.00 0.00 41 1011.8
20260905181020 98 113 2.6 7.8 0.00 0.00 0.00 42 1011.8
20260905180520 98 336 2.6 7.8 0.00 0.00 0.00 41 1011.9
20260905180020 98 287 1.7 5.2 0.00 0.00 0.00 44 1012.0
20260905175520 98 270 0.9 5.2 0.00 0.00 0.00 42 1012.0
20260905175020 98 71 1.7 5.2 0.00 0.00 0.00 44 1012.2
20260905174745 97 273 1.7 5.2 0.00 0.00 0.00 46 1012.3
20260905174019 97 247 1.7 3.5 0.00 0.00 0.00 47 1012.4
20260905173520 96 234 1.7 3.5 0.00 0.00 0.00 47 1012.4
20260905173019 96 315 2.6 5.2 0.00 0.00 0.00 47 1012.5
20260905172519 96 329 2.6 6.1 0.00 0.00 0.00 47 1012.6
20260905172018 96 41 2.6 6.1 0.00 0.00 0.00 48 1012.5
20260905171519 96 245 2.6 6.1 0.00 0.00 0.00 51 1012.6
20260905171246 95 264 2.6 7.0 0.00 0.00 0.00 49 1012.6
20260905170518 95 270 2.6 7.0 0.00 0.00 0.00 50 1012.7
20260905170018 94 150 2.6 7.0 0.00 0.00 0.00 51 1012.8
20260905165519 94 5 4.3 8.7 0.00 0.00 0.00 52 1012.9
20260905165020 94 315 3.5 8.7 0.00 0.00 0.00 51 1013.0
20260905164518 94 268 2.6 7.0 0.00 0.00 0.00 51 1013.1
20260905164019 94 209 3.5 7.8 0.00 0.00 0.00 51 1013.3
20260905163517 94 203 3.5 7.8 0.00 0.00 0.00 52 1013.4
20260905163015 94 299 3.5 7.8 0.00 0.00 0.00 52 1013.5
20260905162515 93 150 3.5 7.8 0.00 0.00 0.00 54 1013.6
20260905162237 93 230 2.6 7.8 0.00 0.00 0.00 54 1013.6
20260905161516 92 314 2.6 6.1 0.00 0.00 0.00 55 1013.6
20260905161012 93 97 2.6 7.8 0.00 0.00 0.00 53 1013.8
20260905160956 93 237 1.7 7.8 0.00 0.00 0.00 53 1013.9
20260905160012 93 226 1.7 4.3 0.00 0.00 0.00 55 1013.9
20260905155511 92 335 1.7 4.3 0.00 0.00 0.00 56 1013.9
20260905155010 91 118 2.6 7.0 0.00 0.00 0.00 56 1014.0
20260905154509 91 39 2.6 7.0 0.00 0.00 0.00 58 1014.0
20260905154010 91 261 2.6 7.0 0.00 0.00 0.00 57 1014.1
20260905153725 91 170 2.6 9.6 0.00 0.00 0.00 58 1014.1
20260905153004 90 232 2.6 9.6 0.00 0.00 0.00 59 1014.2
20260905152504 90 180 2.6 7.0 0.00 0.00 0.00 59 1014.1
20260905152226 90 271 2.6 7.0 0.00 0.00 0.00 59 1014.2
20260905151502 89 250 1.7 7.0 0.00 0.00 0.00 61 1014.1
20260905151003 89 228 3.5 8.7 0.00 0.00 0.00 60 1014.2
20260905150504 89 305 3.5 8.7 0.00 0.00 0.00 61 1014.2
20260905150004 89 287 2.6 6.1 0.00 0.00 0.00 63 1014.4
20260905145500 88 234 3.5 7.8 0.00 0.00 0.00 62 1014.4
20260905145223 88 250 3.5 7.8 0.00 0.00 0.00 62 1014.5
20260905144459 88 267 1.7 7.0 0.00 0.00 0.00 64 1014.5
20260905144000 88 86 1.7 4.3 0.00 0.00 0.00 64 1014.5
20260905143459 87 271 1.7 4.3 0.00 0.00 0.00 64 1014.6
20260905142959 87 260 1.7 4.3 0.00 0.00 0.00 66 1014.6
20260905142500 86 340 3.5 8.7 0.00 0.00 0.00 67 1014.7
20260905142000 86 227 3.5 8.7 0.00 0.00 0.00 67 1014.6
20260905141454 86 276 1.7 6.1 0.00 0.00 0.00 69 1014.7
20260905140947 85 238 2.6 7.0 0.00 0.00 0.00 70 1014.7
20260905140716 85 328 2.6 7.0 0.00 0.00 0.00 70 1014.8
20260905140201 84 325 2.6 7.8 0.00 0.00 0.00 72 1014.8
20260905135444 84 280 2.6 7.8 0.00 0.00 0.00 71 1014.8
20260905134945 83 224 2.6 6.1 0.00 0.00 0.00 72 1014.8
20260905134445 83 230 2.6 6.1 0.00 0.00 0.00 73 1014.8
20260905133944 83 261 3.5 6.1 0.00 0.00 0.00 74 1014.8
20260905133443 82 255 2.6 6.1 0.00 0.00 0.00 74 1014.8
20260905132942 82 272 2.6 7.0 0.00 0.00 0.00 75 1014.8
20260905132441 81 275 2.6 7.0 0.00 0.00 0.00 77 1014.9
20260905132207 80 270 3.5 7.8 0.00 0.00 0.00 78 1014.9
20260905131441 80 252 3.5 7.8 0.00 0.00 0.00 80 1014.9
20260905130939 79 230 2.6 5.2 0.00 0.00 0.00 82 1014.9
20260905130658 78 265 1.7 5.2 0.00 0.00 0.00 84 1014.9
20260905125938 78 265 1.7 3.5 0.00 0.00 0.00 85 1015.1
20260905125922 77 213 0.9 3.5 0.00 0.00 0.00 86 1015.0
20260905124940 77 285 0.9 3.5 0.00 0.00 0.00 86 1015.0
20260905124440 77 215 0.0 2.6 0.00 0.00 0.00 86 1015.0
20260905123934 76 243 0.0 2.6 0.00 0.00 0.00 87 1014.9
20260905123428 76 144 0.0 0.9 0.00 0.00 0.00 87 1014.9
20260905123139 75 144 0.0 0.0 0.00 0.00 0.00 87 1014.8
20260905122416 75 144 0.0 0.0 0.00 0.00 0.00 87 1014.8
20260905121910 74 144 0.0 0.9 0.00 0.00 0.00 86 1014.7
20260905121404 73 256 0.0 0.0 0.00 0.00 0.00 86 1014.7
20260905120858 73 259 0.0 0.0 0.00 0.00 0.00 86 1014.8
20260905120352 72 259 0.0 0.0 0.00 0.00 0.00 85 1014.8
20260905120107 72 259 0.0 0.0 0.00 0.00 0.00 85 1014.7
20260905115340 72 259 0.0 0.0 0.00 0.00 0.00 85 1014.7
20260905114835 71 257 0.0 0.0 0.00 0.00 0.00 85 1014.7
20260905114328 71 257 0.0 0.0 0.00 0.00 0.00 85 1014.7
20260905113822 71 257 0.0 0.0 0.00 0.00 0.00 84 1014.7
20260905113316 71 257 0.0 0.0 0.00 0.00 0.00 84 1014.6
20260905113037 71 257 0.0 0.0 0.00 0.00 0.00 84 1014.6
20260905112306 71 257 0.0 0.0 0.00 0.00 0.00 84 1014.6
20260905111758 71 257 0.0 0.0 0.00 0.00 0.00 84 1014.6
20260905111252 71 257 0.0 0.0 0.00 0.00 0.00 84 1014.5
20260905111010 71 257 0.0 0.0 0.00 0.00 0.00 84 1014.4
20260905110240 72 257 0.0 0.0 0.00 0.00 0.00 84 1014.4
20260905105735 72 257 0.0 0.0 0.00 0.00 0.00 84 1014.3
20260905105228 72 257 0.0 0.0 0.00 0.00 0.00 84 1014.2
20260905105216 72 257 0.0 0.0 0.00 0.00 0.00 84 1014.2
20260905104437 72 257 0.0 0.0 0.00 0.00 0.00 84 1014.2
20260905103710 72 257 0.0 0.0 0.00 0.00 0.00 84 1014.2
20260905103204 72 257 0.0 0.0 0.00 0.00 0.00 84 1014.1
20260905102924 72 257 0.0 0.0 0.00 0.00 0.00 84 1014.1
20260905102412 72 257 0.0 0.0 0.00 0.00 0.00 84 1014.1
20260905101910 72 257 0.0 0.0 0.00 0.00 0.00 84 1014.0
20260905101636 72 257 0.0 0.0 0.00 0.00 0.00 84 1014.0
20260905100634 72 257 0.0 0.0 0.00 0.00 0.00 84 1013.9
20260905100128 73 257 0.0 0.0 0.00 0.00 0.00 84 1013.9
20260905095622 73 257 0.0 0.0 0.00 0.00 0.00 84 1013.9
20260905095116 73 257 0.0 0.0 0.00 0.00 0.00 84 1013.8
20260905094610 73 257 0.0 0.0 0.00 0.00 0.00 84 1013.9
20260905094104 73 257 0.0 0.0 0.00 0.00 0.00 84 1013.9
20260905093558 73 257 0.0 0.0 0.00 0.00 0.00 84 1013.9
20260905093052 73 257 0.0 0.0 0.00 0.00 0.00 84 1013.9